Regional Weather Roundup
Issued by NWS

Home | Current Version | Previous Version | Graphics & Text | Print | Product List | Glossary On
Versions: 1 2 3 4 5 6 7 8 9 10 11 12 13 14 15 16 17 18 19 20 21 22 23 24 25 26 27 28 29 30 31 32 33 34 35 36 37 38 39 40 41 42 43 44 45 46 47 48 49 50
000
ASUS45 KCYS 242210
RWRWY

WYOMING REGIONAL WEATHER ROUNDUP
NATIONAL WEATHER SERVICE CHEYENNE WY
300 PM MST SAT JAN 24 2015

NOTE:  "FAIR" INDICATES FEW OR NO CLOUDS BELOW 12,000 FEET
WITH NO SIGNIFICANT WEATHER AND/OR OBSTRUCTIONS TO VISIBILITY.

WYZ001-242300-
YELLOWSTONE NATIONAL PARK

CITY           SKY/WX    TMP DP  RH WIND       PRES   REMARKS
LK YELLOWSTONE   N/A     28  20  71 W6        30.31S WCI  22
W YELLOWSTONE  NOT AVBL

$$
WYZ002>013-054>058-071-098>099-242300-
NORTHERN WYOMING

CITY           SKY/WX    TMP DP  RH WIND       PRES   REMARKS
JACKSON        CLOUDY    23  21  93 CALM      30.33F
CODY           FAIR      46  25  42 NW15G22   30.10R
GREYBULL       FAIR      34  25  69 NW5       30.10R WCI  30
WORLAND        FAIR      30  25  81 SW7       30.11R WCI  23
SHERIDAN       LGT RAIN  37  33  85 N15       30.07R WCI  28
BUFFALO        LGT RAIN  37  33  85 N25G37    30.05R WCI  25
GILLETTE       LGT RAIN  39  36  89 NW20G32   29.98R WCI  29
HULETT           N/A    N/A N/A N/A MISG        N/A
NEWCASTLE      LGT RAIN  39  34  81 NW23G36   29.91R WCI  29

$$
WYZ014>020-022>026-101>103-242300-
CENTRAL WYOMING

CITY           SKY/WX    TMP DP  RH WIND       PRES   REMARKS
BIG PINEY      FAIR      40  27  59 N14       30.24S WCI  32
PINEDALE       FAIR      34  28  80 NW15      30.25S WCI  24
DUBOIS         FAIR      36  27  69 NW28      30.18R WCI  23
LANDER         FAIR      45  29  53 NW21      30.08S
RIVERTON       FAIR      31  24  75 NE12      30.11R WCI  22
CASPER         CLOUDY    38  24  57 SW24G30   30.06R WCI  27
DOUGLAS        CLOUDY    42  28  57 W25G33    30.00R

$$
WYZ021-027>030-104>119-242300-
SOUTHERN WYOMING

CITY           SKY/WX    TMP DP  RH WIND       PRES   REMARKS
EVANSTON       CLOUDY    34  26  72 W12       30.39R WCI  25
KEMMERER       CLOUDY    30  27  86 W21       30.35R WCI  17
FORT BRIDGER   CLOUDY    37  28  70 W26       30.36R WCI  25
ROCK SPRINGS   CLOUDY    37  23  56 W35       30.25R WCI  24
DIXON          CLOUDY    35  19  52 SW9       30.29S WCI  28
RAWLINS        CLOUDY    34  19  54 W28G36    30.16R WCI  21
SARATOGA       CLOUDY    36  19  51 SW20G30   30.18F WCI  25
LARAMIE        CLOUDY    37  21  52 W23G33    30.04F WCI  26
CHEYENNE       CLOUDY    44  20  38 W32G46    30.00R
TORRINGTON     FAIR      48  23  37 W24G33    29.94R
PINE BLUFFS    FAIR      46  21  36 NW29G40   29.96R

$$



USA.gov is the U.S. government's official web portal to all federal, state and local government web resources and services.